This is the latest recevied weather packets stored in our database for station/object KD9CCP. If no packets are shown the sender has not sent any weather packets the latest 10 day(s).
| Time | Temp. | Humidity | Pressure | Rain* | Wind** | Luminosity | Snow |
|---|---|---|---|---|---|---|---|
| 1777945654 | 7.22° C | 56% | 1001.7 hPa | 0 mm | - | 0 W/m² | - |
| 1777945352 | 7.78° C | 57% | 1001.8 hPa | 0 mm | - | 0 W/m² | - |
| 1777945048 | 7.78° C | 55% | 1001.8 hPa | 0 mm | - | 0 W/m² | - |
| 1777944745 | 7.78° C | 57% | 1001.4 hPa | 0 mm | - | 0 W/m² | - |
| 1777944444 | 7.78° C | 55% | 1001.3 hPa | 0 mm | - | 0 W/m² | - |
| 1777944141 | 7.78° C | 55% | 1001.4 hPa | 0 mm | - | 0 W/m² | - |
| 1777943836 | 8.33° C | 55% | 1001.2 hPa | 0 mm | - | 0 W/m² | - |
| 1777943534 | 8.33° C | 54% | 1001.1 hPa | 0 mm | - | 0 W/m² | - |
| 1777943229 | 8.33° C | 54% | 1001 hPa | 0 mm | - | 0 W/m² | - |
| 1777942926 | 8.89° C | 56% | 1001.1 hPa | 0 mm | - | 0 W/m² | - |
| 1777942622 | 8.89° C | 55% | 1001.1 hPa | 0 mm | - | 1 W/m² | - |
| 1777942319 | 8.89° C | 54% | 1000.8 hPa | 0 mm | - | 2 W/m² | - |
| 1777942016 | 8.89° C | 53% | 1000.8 hPa | 0 mm | - | 3 W/m² | - |
| 1777941713 | 9.44° C | 55% | 1000.9 hPa | 0 mm | - | 4 W/m² | - |
| 1777941410 | 9.44° C | 54% | 1000.6 hPa | 0 mm | - | 5 W/m² | - |
| 1777941107 | 9.44° C | 56% | 1000.5 hPa | 0 mm | - | 5 W/m² | - |
| 1777940803 | 9.44° C | 54% | 1000.7 hPa | 0 mm | - | 6 W/m² | - |
| 1777940502 | 10° C | 53% | 1000.6 hPa | 0 mm | - | 6 W/m² | - |
| 1777940199 | 10° C | 55% | 1000.4 hPa | 0 mm | - | 7 W/m² | - |
| 1777939896 | 10° C | 53% | 1000.5 hPa | 0 mm | - | 9 W/m² | - |
| 1777939593 | 10.56° C | 51% | 1000 hPa | 0 mm | - | 12 W/m² | - |
| 1777939291 | 10.56° C | 51% | 1000 hPa | 0 mm | - | 10 W/m² | - |
| 1777938987 | 11.11° C | 51% | 999.7 hPa | 0 mm | - | 11 W/m² | - |
| 1777938684 | 11.11° C | 54% | 999.7 hPa | 0 mm | - | 14 W/m² | - |
| 1777938381 | 11.11° C | 51% | 999.5 hPa | 0 mm | - | 16 W/m² | - |
* Rain latest hour (hover to see other rain measurements)
** Current wind speed in m/s (hover to see current wind gust speed)